Starlink 4716

operational
NORAD ID: 53706 Int'l Des: 2022-107 Owner: SPXS Country: US Constellation: starlink
LEOCIRCULAR

Starlink 4716について

説明を読み込み中...

リアルタイム位置

3D地球を読み込み中...

次回通過

高度履歴

Altitude vs Time

uPlot chart will show altitude changes over time

軌道要素

1 53706U 22107G 25351.42382518 .00000261 00000-0 34515-4 0 9993
2 53706 53.2165 253.4802 0001209 85.3636 274.7494 15.08835594182435
Epoch: Dec 17, 2025 • Age: 13 hours

現在のステータス

高度 543.8 km
速度 7.60 km/s
衛星直下点 45.13°N, 55.31°W
打ち上げ日 Sep 5, 2022
運用期間 3.2 years
タイプ internet

技術仕様

分類 Payload
質量 305.00 kg
乾燥質量 290.00 kg
総質量 305.00 kg
長さ 0.20 m
直径 2.80 m
スパン 9.00 m
形状 Box + pan
製造者 SPXS
バスタイプ Starlink
フェーズステータス In Orbit
所有者/国 SPXS/US

大規模コンステレーション

Loading constellations...